GEFSNGP_500_meanwind_174.txt.gz
Wind_Speed
15 15 15 14 13 12 12 11 10 9 9 9 9 9 8 9 10 9 9 9 9 9 9 10 11 11 11 11 11 11 11 12 12 11 12 12 12 12 12 11 11 11 10 10
16 16 15 15 13 13 12 12 11 10 10 8 8 9 9 9 9 10 10 10 10 10 10 10 11 11 12 12 12 12 12 12 12 12 12 13 13 13 13 12 12 13 13 12
18 16 16 16 14 13 12 12 11 11 10 9 9 8 8 8 9 10 10 11 11 11 11 11 11 12 12 13 13 13 12 12 12 12 13 13 14 14 14 14 14 14 15 15
19 18 17 15 15 14 13 12 12 11 10 10 9 9 8 8 9 10 11 11 11 11 11 12 12 12 13 14 13 13 13 13 13 13 13 14 15 16 16 16 16 16 16 16
19 19 18 16 15 14 14 13 13 12 11 10 10 10 10 9 9 10 11 12 12 12 12 12 13 13 14 14 14 14 14 14 15 15 15 15 15 16 16 17 17 17 17 17
21 20 19 17 16 15 15 14 13 13 12 12 12 12 11 11 10 11 11 12 13 13 13 13 13 13 14 15 14 15 15 15 16 16 17 17 17 17 17 18 18 18 18 18
22 21 19 17 16 16 15 13 13 13 13 13 12 12 12 12 12 12 12 12 13 13 14 14 14 14 14 14 15 15 16 16 16 17 17 18 17 18 18 19 19 19 19 20
22 21 17 17 17 16 14 14 14 14 13 13 13 13 14 13 13 13 13 12 13 14 14 15 15 16 16 15 16 16 17 17 18 18 19 19 19 19 20 20 20 20 20 20
22 21 18 16 17 16 15 14 14 14 13 13 13 14 13 13 14 13 13 13 13 14 14 15 15 16 17 17 17 17 18 19 20 20 20 20 20 20 20 21 21 21 22 22
22 20 19 19 18 17 16 15 14 14 14 14 15 15 14 14 14 14 13 13 14 14 14 15 16 16 17 17 18 18 19 20 21 22 22 21 21 21 22 22 22 22 23 23
24 22 22 21 20 19 18 17 16 15 15 15 16 16 15 15 15 14 14 13 13 14 15 15 15 16 17 17 18 19 19 19 20 21 21 22 22 22 22 22 23 24 25 25
26 24 24 23 22 21 20 19 18 18 17 16 16 15 16 16 16 16 16 16 15 15 15 15 15 16 17 18 18 19 19 19 19 20 21 21 22 23 23 24 24 24 25 26
27 26 25 24 23 22 21 20 20 20 18 17 16 16 17 17 17 17 17 18 18 17 17 17 16 17 17 18 18 19 19 20 21 21 21 22 23 23 24 25 25 25 25 26
28 27 27 26 25 24 22 21 21 21 20 19 18 18 18 18 17 17 18 19 19 18 18 18 18 18 19 19 19 20 20 21 22 23 23 24 24 25 25 25 26 26 26 26
30 29 28 28 27 26 25 24 23 23 22 21 20 20 19 18 18 18 19 19 20 19 19 19 20 20 20 20 20 21 21 22 23 24 25 25 26 26 26 26 27 27 27 28
31 30 29 29 29 27 26 25 25 24 24 23 22 21 20 20 20 20 19 20 21 21 21 21 21 21 21 21 22 22 22 23 23 24 24 24 25 26 27 28 28 28 29 30
32 32 30 30 30 29 28 27 26 27 27 26 24 23 22 22 21 21 21 21 21 22 22 22 22 22 22 22 22 23 24 24 24 25 25 25 26 27 28 29 30 31 32 33
33 32 32 31 30 30 30 28 28 28 27 26 26 26 25 23 23 23 22 23 23 23 23 23 23 23 23 23 23 24 24 24 25 26 26 27 27 28 29 30 31 32 33 34
33 33 33 33 32 31 31 30 30 29 28 27 26 26 25 25 24 24 24 25 24 24 24 24 24 25 25 25 25 26 26 26 27 27 28 29 29 30 30 31 32 33 34 36
33 33 32 33 33 32 31 31 30 30 29 28 27 27 27 27 27 26 26 26 26 25 25 25 26 26 26 27 28 28 28 28 28 29 29 30 31 32 33 34 35 36 37 38
34 33 33 33 33 32 32 31 31 30 30 29 29 28 28 29 28 28 27 27 26 26 26 27 27 28 29 29 29 30 30 30 31 32 32 33 34 35 36 37 37 38 39 40
34 34 34 33 33 32 32 32 32 31 31 30 29 29 29 29 29 29 28 27 27 27 27 28 28 29 29 29 30 31 31 32 33 33 34 35 36 37 37 38 40 40 41 42
34 34 35 34 33 33 32 32 32 31 31 31 30 30 30 29 29 28 28 29 29 29 29 30 30 31 31 31 32 32 33 33 34 35 36 36 37 38 39 40 41 42 43 43
33 33 34 34 35 34 34 33 32 31 31 31 31 31 30 29 29 29 30 30 30 31 31 32 32 33 33 33 34 35 35 36 37 38 38 39 40 41 41 41 42 43 43 44
32 33 33 34 35 35 34 34 33 33 32 32 32 31 31 30 30 31 31 32 32 33 33 34 34 34 35 35 36 36 37 38 38 39 40 40 41 41 41 42 43 44 45 46
33 34 34 33 34 34 34 33 33 32 32 32 32 32 31 31 31 32 32 32 33 34 35 35 36 36 36 37 37 37 38 38 39 40 41 41 41 42 42 43 44 45 46 47
33 34 34 33 34 34 34 33 33 34 33 33 32 33 33 33 33 32 33 33 34 34 35 35 35 36 36 37 38 39 39 40 40 40 41 41 42 43 43 44 45 46 47 48

GEFSNGP_500_meanwind_180.txt.gz
Wind_Speed
17 17 16 15 14 14 13 12 11 10 9 10 10 10 10 11 10 10 10 10 10 9 9 10 10 10 10 10 10 10 11 10 10 10 10 11 11 12 12 12 12 11 12 12
17 17 18 17 16 15 14 13 12 11 10 10 11 11 11 11 11 11 10 10 10 10 10 10 10 10 10 10 11 11 11 11 11 11 11 12 12 12 13 13 13 13 14 14
19 19 19 19 16 16 15 14 13 12 11 11 11 12 12 12 12 11 11 10 10 11 11 10 11 11 10 11 11 11 12 12 13 13 13 13 13 13 14 14 15 15 15 16
20 20 21 18 17 17 16 15 14 13 12 12 12 11 12 12 12 11 11 11 12 12 12 12 11 12 12 12 12 13 13 13 14 14 15 15 14 15 15 15 16 16 17 17
21 21 20 19 18 17 16 16 15 14 14 14 13 12 12 12 12 12 12 12 12 12 13 13 13 13 13 14 14 15 14 15 15 16 16 15 15 16 16 16 17 17 18 19
21 21 20 19 18 17 17 16 15 14 15 15 14 14 12 12 12 12 12 13 13 13 13 14 14 14 14 15 15 16 16 16 17 17 16 16 17 17 17 17 17 18 19 19
21 21 20 19 18 17 16 15 15 16 16 15 14 14 13 13 12 12 12 13 13 13 14 15 15 15 15 15 15 16 16 17 17 17 17 17 18 18 19 19 19 19 20 20
21 22 20 20 19 18 17 17 17 16 16 15 15 15 14 13 13 12 13 13 13 14 15 15 15 15 16 16 16 17 17 18 17 17 17 18 18 19 19 20 20 20 21 21
21 21 20 21 20 20 20 18 18 18 17 17 16 16 15 14 14 14 14 14 14 15 15 15 15 15 15 16 17 18 18 18 19 19 18 19 20 20 20 21 21 21 22 22
23 21 20 20 20 20 21 20 19 19 18 18 18 17 17 16 16 16 16 15 15 15 15 15 15 15 15 16 17 18 19 19 20 20 20 20 21 21 21 22 22 22 23 23
24 22 21 21 20 20 21 21 21 20 19 18 18 18 17 16 16 16 16 16 16 15 15 15 15 16 16 17 17 18 18 19 19 20 20 21 21 21 22 22 23 23 23 24
26 24 23 22 22 22 22 22 21 21 20 20 19 19 18 17 17 16 16 16 16 16 16 16 16 16 16 16 17 17 18 19 19 19 20 20 20 21 22 23 24 24 24 24
27 26 25 24 24 24 24 23 22 22 22 21 20 19 19 19 18 18 17 17 17 17 17 17 17 17 17 18 18 18 18 18 19 19 19 20 21 21 22 23 24 24 24 25
28 28 27 27 26 26 26 25 24 23 23 22 22 21 20 20 19 19 19 18 18 18 18 18 18 19 19 19 20 20 20 20 20 20 20 21 21 22 23 24 25 26 26 27
29 29 29 28 28 28 28 26 25 24 23 23 23 22 22 21 21 20 20 20 19 19 19 20 20 20 20 21 21 21 22 22 22 22 22 23 23 24 25 25 26 26 27 28
31 31 30 30 30 30 29 28 26 25 25 25 24 24 23 23 22 21 21 21 21 21 21 21 21 22 22 22 22 23 23 23 24 24 24 25 25 26 27 28 28 28 29 29
31 31 31 31 31 31 30 29 28 27 27 26 26 25 25 24 23 23 23 23 23 23 23 23 23 23 23 24 24 24 24 24 25 26 26 26 27 28 28 29 29 29 30 30
31 31 32 31 31 32 31 31 30 30 30 29 28 27 27 26 24 24 24 24 24 23 23 23 24 24 25 25 25 25 25 25 26 26 27 27 28 28 29 29 30 30 31 33
32 32 32 32 32 33 33 32 32 31 31 31 30 29 28 28 27 27 26 25 24 24 24 24 24 25 25 25 25 25 26 26 27 27 27 27 28 29 30 30 30 31 33 34
32 32 33 32 33 33 34 34 34 33 32 31 31 30 30 29 29 28 28 27 26 26 25 26 26 25 25 25 25 26 26 27 27 27 27 28 29 30 30 31 32 33 34 35
32 33 33 33 34 34 34 34 34 34 33 32 32 31 31 30 30 29 29 29 28 28 28 27 27 26 26 27 27 27 28 28 29 29 29 29 30 31 32 33 34 35 36 37
31 32 33 33 34 35 35 34 35 34 33 33 32 33 33 32 31 31 30 30 29 29 29 28 28 28 28 29 29 29 30 30 30 31 31 32 33 34 35 36 36 37 38 38
31 32 32 32 33 35 35 35 35 35 35 34 33 33 33 32 32 32 32 32 31 30 30 29 29 30 30 30 30 31 31 32 32 33 33 34 35 36 37 37 38 39 39 40
32 32 32 32 33 33 33 34 35 35 36 35 35 34 33 33 33 33 33 33 32 31 31 30 30 31 31 31 31 32 33 33 34 35 36 37 38 38 39 39 39 40 41 41
32 32 32 32 33 33 33 34 35 36 36 36 35 34 34 34 34 33 33 33 33 32 32 32 32 33 33 33 33 34 35 35 36 37 38 39 39 40 40 40 40 40 41 42
31 31 31 32 33 33 34 34 35 35 35 36 36 35 34 34 34 34 33 33 33 33 34 34 34 34 34 34 35 35 36 37 38 39 39 40 40 40 40 40 40 40 41 41
30 30 30 31 32 33 34 35 35 35 36 36 36 36 35 35 35 35 34 34 34 34 34 34 35 36 36 36 37 37 37 37 38 39 39 39 39 39 39 39 40 40 41 41

GEFSNGP_500_meanwind_186.txt.gz
Wind_Speed
15 15 15 14 14 14 13 13 12 11 10 9 10 10 10 9 9 9 9 9 8 8 8 9 9 9 9 9 9 10 10 10 10 10 10 10 11 10 11 11 11 11 11 11
16 16 16 15 15 15 14 14 13 13 11 10 10 11 10 10 10 9 9 9 8 8 9 10 10 10 10 10 10 10 10 10 10 10 10 11 11 12 13 13 12 12 12 13
18 18 17 17 15 15 15 15 15 14 12 11 12 12 11 11 10 10 10 9 9 9 9 10 11 11 11 11 11 11 11 11 11 11 11 11 11 11 12 12 13 13 13 13
19 18 19 17 16 16 16 16 16 15 14 13 13 13 12 12 12 11 11 10 10 10 10 10 11 12 11 12 12 11 11 11 12 13 13 13 13 13 13 13 14 14 14 14
20 19 19 18 18 17 17 16 16 16 15 15 14 14 13 12 13 13 12 11 11 11 11 12 12 12 12 12 12 12 13 13 13 13 14 14 14 14 15 15 15 15 16 16
21 20 19 19 19 18 17 17 17 16 16 15 15 14 13 13 13 13 13 13 12 12 12 12 13 13 13 13 13 13 13 14 14 14 15 15 15 15 15 16 16 16 17 18
21 20 20 19 19 19 18 18 17 17 16 16 16 15 15 14 14 13 13 13 13 13 13 13 13 13 13 14 14 14 14 14 14 15 15 16 16 16 17 17 17 17 18 19
22 21 20 20 20 19 19 19 19 18 17 17 16 17 16 15 14 14 13 14 14 13 13 14 14 14 14 14 14 14 15 15 15 16 16 17 17 18 18 18 18 19 20 20
24 22 22 21 21 20 20 20 20 19 18 18 18 18 18 16 15 15 14 14 14 14 14 14 14 14 15 15 15 15 15 16 16 16 17 17 18 18 18 19 20 21 21 21
25 24 23 22 21 21 21 21 21 21 20 20 20 20 19 18 17 16 16 15 15 15 15 15 15 15 15 16 16 16 16 16 16 17 17 18 18 18 19 20 20 20 21 21
27 25 24 23 23 23 23 22 22 22 21 21 21 20 20 19 18 18 17 17 16 16 16 16 16 16 16 16 17 17 17 18 18 18 18 18 18 18 19 19 20 20 21 22
28 26 25 25 24 24 23 23 23 23 23 23 22 21 21 21 20 19 18 18 18 18 17 17 17 17 16 16 17 17 17 17 18 18 18 18 18 18 18 19 19 21 22 23
28 27 27 26 25 25 24 24 24 24 24 24 24 23 22 22 21 20 20 19 19 19 19 18 18 18 17 17 18 18 18 18 18 18 19 19 19 19 19 19 20 21 22 23
28 27 27 27 26 26 25 25 24 24 25 25 24 24 23 23 22 22 21 21 21 21 20 20 19 19 18 19 19 19 19 20 20 19 20 20 20 20 20 20 21 22 23 24
27 27 27 27 27 27 27 27 26 25 25 26 26 26 25 25 24 23 23 22 22 22 21 21 20 20 20 21 21 21 21 21 21 21 21 21 21 22 22 23 23 24 24 25
28 28 28 28 27 27 28 29 28 28 27 27 27 27 26 26 26 25 25 24 23 23 22 22 22 22 23 23 23 23 23 23 23 23 23 23 23 24 24 25 26 26 27 28
30 29 29 28 28 29 29 30 29 30 30 29 28 28 27 26 26 26 26 25 25 24 24 24 24 24 24 24 24 24 24 24 24 25 25 25 25 26 27 27 28 29 29 30
31 31 31 30 30 30 30 30 30 30 31 31 31 30 29 28 28 27 27 27 27 27 26 26 25 26 26 26 25 25 25 25 26 26 26 26 27 28 28 29 29 30 30 31
32 31 31 31 30 31 31 31 30 30 29 30 31 31 30 30 29 28 28 28 28 28 27 27 27 27 28 28 27 27 26 27 27 27 27 28 28 28 29 30 30 31 32 32
33 32 32 32 31 31 31 31 31 31 31 31 31 31 31 30 30 29 29 29 29 29 29 28 28 28 29 28 27 27 27 27 27 27 27 28 28 29 29 30 30 31 32 33
32 32 32 31 31 31 31 31 32 32 32 32 32 32 32 32 32 31 30 30 30 30 30 29 29 29 28 28 28 28 28 28 28 28 28 29 29 29 30 30 31 31 32 32
32 32 32 32 32 32 31 32 32 32 32 32 32 32 32 32 32 32 32 32 31 31 31 30 30 29 29 29 29 29 29 29 29 29 29 29 30 31 31 32 32 33 33 34
32 32 32 32 32 32 32 32 32 32 32 32 32 33 32 33 32 32 32 32 32 32 32 31 31 30 31 31 31 31 31 31 31 31 31 31 31 32 33 33 33 34 35 35
32 32 32 32 32 31 31 31 32 32 32 32 32 32 33 33 33 33 34 34 34 33 32 32 32 32 32 32 32 32 32 32 32 32 32 33 33 33 33 34 34 35 36 36
32 32 32 32 32 32 31 31 31 32 32 32 32 32 33 33 34 34 34 34 35 34 34 33 33 33 33 33 32 32 33 33 33 33 34 34 35 35 35 35 36 36 37 37
32 32 31 31 31 31 31 32 32 32 32 32 33 33 33 34 34 34 34 35 35 34 34 34 34 34 34 34 33 33 33 33 33 34 35 36 36 36 36 37 37 37 38 38
31 31 31 31 31 32 32 32 32 32 32 32 32 32 33 33 34 34 34 34 35 35 35 34 34 34 34 34 34 34 34 35 35 36 37 36 36 37 37 37 37 38 38 38

GEFSNGP_500_meanwind_192.txt.gz
Wind_Speed
17 16 15 15 15 14 14 14 15 14 13 13 12 12 12 12 11 10 10 9 8 8 8 9 9 9 9 9 9 10 10 10 10 10 10 9 9 9 9 9 10 10 10 10
18 17 17 16 16 16 16 16 16 15 14 14 13 13 12 12 12 11 10 9 9 9 9 9 9 9 10 9 10 11 11 11 11 11 11 11 10 10 10 10 11 11 11 12
19 18 19 18 17 17 17 17 17 17 17 15 14 14 14 13 12 11 11 10 10 11 10 10 10 10 9 9 10 10 11 11 11 11 11 11 12 12 12 12 12 12 12 12
21 20 20 18 18 18 18 18 18 19 18 17 15 15 14 13 12 12 12 11 11 11 11 10 10 11 10 10 10 10 10 11 11 12 12 12 12 13 13 13 12 13 14 14
22 22 22 21 20 19 19 19 19 19 19 18 18 17 15 14 13 12 13 13 12 12 12 11 11 11 11 11 11 11 11 11 12 12 13 13 13 14 14 14 15 15 15 16
23 23 24 22 21 20 21 20 19 19 19 19 19 18 16 16 15 14 14 13 13 13 13 12 12 11 11 12 12 12 12 13 13 13 13 14 14 15 15 15 16 16 17 17
24 24 25 23 22 21 21 21 19 20 19 19 19 19 17 16 16 15 15 15 14 14 14 14 13 13 13 13 13 13 14 14 14 14 14 15 15 15 16 16 17 17 17 17
25 26 26 24 23 23 22 21 20 20 20 19 19 19 18 18 17 16 16 16 16 16 15 15 15 14 14 14 14 15 15 15 15 15 15 16 16 16 16 17 17 17 18 18
26 26 25 24 24 23 23 22 21 21 21 20 19 20 19 19 19 18 18 18 17 17 17 16 16 16 15 15 15 16 16 16 16 17 16 17 17 17 18 18 18 18 19 19
26 26 26 26 25 24 23 23 23 22 22 21 21 20 20 20 20 20 20 19 19 18 17 17 17 17 17 17 17 17 17 18 18 18 18 18 18 19 19 19 20 19 19 20
27 26 26 26 26 26 24 24 24 24 23 23 22 22 21 21 21 21 20 20 20 20 19 19 19 18 18 18 18 18 18 19 19 19 19 20 20 20 21 21 21 22 22 22
27 26 27 26 26 26 26 25 25 25 25 25 24 23 22 22 22 22 21 21 21 21 21 21 20 19 19 19 19 18 18 18 19 20 19 20 20 21 21 21 21 22 22 23
29 28 27 26 25 26 26 26 26 26 25 25 25 24 24 24 24 23 23 23 22 23 22 22 22 21 20 20 20 20 20 19 19 19 20 20 20 21 21 21 21 21 21 22
30 29 28 26 26 27 27 26 27 27 27 26 25 25 25 25 25 25 25 25 24 24 24 24 23 23 22 22 21 21 21 21 21 21 21 22 22 22 22 22 22 22 22 23
31 31 30 29 28 28 28 27 26 27 27 27 27 26 26 27 26 26 26 26 25 25 25 25 25 24 23 23 23 23 23 22 23 23 23 23 23 23 23 23 24 24 24 25
32 32 31 30 29 29 29 28 27 26 27 27 27 26 26 27 27 27 28 28 27 27 26 26 25 24 24 25 25 25 25 24 24 25 24 24 24 24 24 25 25 26 27 27
32 31 31 31 31 31 30 29 27 26 26 26 26 26 27 27 28 28 28 28 28 27 27 26 26 26 26 26 26 26 26 26 26 26 26 26 26 26 26 27 27 27 28 29
32 31 31 32 32 32 31 30 29 28 27 26 26 27 27 28 28 28 28 28 28 28 28 27 27 27 27 27 27 27 27 26 26 26 26 26 26 27 27 28 28 29 30 30
32 32 32 32 32 32 32 31 31 29 28 28 27 27 27 27 28 29 28 28 28 28 28 28 29 29 29 28 28 28 27 27 27 27 27 27 26 27 28 29 29 30 30 31
34 33 33 34 34 34 33 33 32 31 29 29 29 28 28 28 29 29 30 30 29 29 29 28 29 29 29 29 29 28 28 28 28 28 28 28 28 29 29 30 31 31 31 32
35 34 34 34 34 34 34 33 33 32 31 30 30 29 29 30 30 30 31 31 30 30 30 30 30 29 29 30 30 30 29 29 29 29 29 29 30 31 31 31 32 32 32 33
34 34 34 34 34 35 35 34 33 33 32 32 31 31 30 30 30 31 31 31 31 31 31 31 31 30 31 31 31 30 30 31 31 31 31 31 31 32 32 32 32 32 32 33
34 33 34 34 34 35 34 34 33 33 32 32 32 32 31 31 30 30 31 31 32 32 32 32 32 32 32 32 32 32 32 32 32 32 32 32 32 32 32 33 33 34 34 34
35 35 35 35 34 34 34 34 34 34 33 33 33 32 32 32 32 31 32 32 32 33 33 33 33 33 33 33 33 33 33 33 33 33 33 33 33 34 34 34 34 34 35 36
35 36 35 35 35 35 35 35 35 35 34 33 33 33 33 33 33 33 33 32 32 32 33 33 34 34 34 34 34 34 34 34 34 34 34 34 35 35 35 35 35 35 36 36
36 36 36 35 35 35 35 35 35 35 35 35 34 33 33 33 33 33 33 33 34 34 34 34 35 35 35 36 36 35 35 35 35 36 36 36 36 37 37 37 36 37 37 37
35 35 35 35 36 36 36 36 35 35 35 35 34 34 33 33 33 33 34 34 34 35 35 35 35 35 35 35 35 35 36 35 35 36 37 37 38 38 38 38 38 38 39 39

GEFSNGP_500_meanwind_198.txt.gz
Wind_Speed
15 14 13 14 13 12 11 11 12 11 11 10 10 9 8 9 8 8 8 7 7 7 7 8 8 8 8 9 9 9 9 9 9 9 9 9 9 9 9 9 9 9 10 10
16 15 15 15 14 14 13 13 13 12 12 12 11 10 10 10 9 9 8 7 7 7 7 8 8 8 8 9 10 10 10 10 10 10 10 10 10 10 10 10 11 11 11 11
17 16 17 17 16 16 15 14 14 14 13 13 13 13 12 11 11 10 9 8 8 8 8 8 8 8 9 9 10 10 11 10 10 11 11 11 11 12 12 12 12 12 12 13
19 18 19 17 17 16 16 16 15 15 14 14 14 13 13 13 12 11 10 10 9 9 8 9 9 10 10 10 11 11 11 11 11 12 12 12 13 13 13 13 13 13 14 14
21 21 20 18 18 17 17 17 16 16 15 15 15 14 14 14 13 13 12 11 11 10 10 10 10 11 11 12 12 12 12 12 12 12 12 13 13 13 13 14 14 15 14 15
23 22 22 19 19 19 19 18 16 17 17 16 16 16 16 15 15 14 13 13 12 11 11 11 11 13 13 13 12 12 13 14 14 13 13 13 14 15 14 15 15 15 16 16
24 24 23 20 19 20 20 18 17 17 17 17 17 17 17 17 16 16 15 14 14 13 13 13 14 14 14 14 14 14 14 15 15 14 14 14 14 15 15 16 16 16 17 17
24 25 23 21 21 21 21 20 19 18 18 18 18 18 18 18 18 17 17 17 16 15 15 15 15 16 16 16 16 16 16 16 16 16 16 15 16 16 17 17 17 18 18 18
25 24 23 22 22 21 21 21 21 20 20 19 19 19 19 19 19 18 18 18 18 17 16 15 15 16 17 17 17 17 17 17 17 17 17 17 17 17 18 18 18 19 19 19
26 24 22 22 22 22 21 21 21 20 20 20 20 20 20 19 20 20 20 19 19 18 18 17 16 16 17 17 18 18 18 18 17 17 18 18 18 19 19 19 19 19 20 20
26 25 24 24 23 23 23 22 21 20 20 20 21 21 21 21 21 21 21 21 20 20 20 19 18 18 17 18 18 19 19 19 19 19 19 19 19 19 20 20 19 20 20 21
27 26 26 25 24 24 23 23 23 22 22 22 22 22 22 23 23 22 22 21 22 21 21 20 19 19 19 19 19 19 19 19 20 20 20 20 19 19 20 19 20 21 21 22
28 28 28 27 26 25 24 23 23 23 23 23 22 22 23 23 23 23 23 23 23 23 22 21 20 20 20 20 20 20 20 20 20 20 20 20 19 19 20 20 20 21 22 22
28 29 28 27 27 26 25 25 25 24 24 24 23 23 23 23 24 24 24 24 24 24 22 22 22 21 21 22 22 22 22 21 21 21 21 21 20 21 21 21 22 22 23 23
29 29 29 29 28 28 27 27 27 26 26 25 25 24 25 24 24 25 25 25 25 25 24 23 22 22 23 23 23 23 23 22 22 22 22 22 22 22 22 22 23 24 25 25
30 29 29 29 29 29 28 28 28 27 26 25 25 25 25 25 25 25 26 26 26 26 25 24 24 24 24 24 24 24 24 23 23 23 24 24 24 24 24 24 24 25 25 25
30 29 29 29 30 30 29 29 28 27 27 27 26 26 26 26 26 26 26 26 27 27 26 26 26 25 25 25 25 26 25 25 25 25 25 25 25 25 25 25 26 26 26 26
31 30 30 30 30 31 30 29 29 28 28 27 27 27 26 26 27 27 27 27 27 27 26 26 27 26 26 26 26 27 27 27 27 27 27 27 27 27 27 27 27 27 28 28
32 32 32 32 31 31 31 30 30 29 28 28 28 28 28 27 27 27 27 27 27 27 27 27 27 26 26 27 27 27 27 28 28 28 28 28 28 28 28 28 28 29 29 30
34 34 33 33 33 33 32 31 31 30 30 29 29 28 28 28 28 28 28 28 28 27 27 28 27 27 27 27 28 28 28 28 29 28 28 29 29 29 29 29 30 30 31 32
33 33 34 34 34 33 33 32 31 31 30 30 30 29 28 28 28 28 29 29 28 28 28 28 28 28 28 28 28 28 27 28 28 28 28 29 29 30 30 31 31 32 32 32
34 33 34 34 34 34 33 33 32 32 31 31 31 30 29 29 29 29 29 29 29 29 29 28 29 29 30 29 30 29 29 29 30 30 30 31 31 31 32 32 32 33 33 33
34 34 34 34 34 34 34 34 33 33 33 33 32 31 31 30 30 30 30 30 30 30 30 30 30 30 31 31 31 31 31 31 31 31 32 32 32 33 33 33 33 33 34 34
32 32 33 33 33 34 34 33 33 33 33 33 33 32 32 32 32 32 32 32 32 31 31 31 32 32 32 31 32 32 32 32 32 32 32 33 34 34 35 35 35 35 35 36
32 32 32 33 34 34 34 34 34 34 34 34 33 33 32 32 32 32 33 33 33 33 32 32 32 32 32 32 32 32 32 33 33 33 34 34 34 35 35 36 36 36 37 37
33 33 32 33 33 34 34 34 34 34 34 35 35 34 34 34 34 34 34 34 34 34 34 34 34 34 34 34 34 34 34 34 34 34 35 34 34 35 35 36 36 37 38 38
32 32 33 33 34 34 34 34 35 35 35 36 36 36 35 35 35 35 35 34 34 34 35 35 36 36 35 35 35 35 35 34 35 35 35 35 36 36 36 37 37 37 37 38

GEFSNGP_500_meanwind_204.txt.gz
Wind_Speed
16 16 16 16 15 14 14 13 13 12 12 10 10 11 11 11 11 11 10 9 9 9 8 9 9 9 9 9 9 10 9 9 8 8 8 9 9 9 9 9 10 10 10 10
17 17 17 16 16 15 15 14 13 13 12 12 11 12 12 12 12 12 11 10 10 10 10 10 10 10 10 10 10 10 10 10 9 9 10 10 10 10 11 11 11 12 12 12
18 18 18 16 15 16 15 15 15 14 13 13 13 13 13 13 13 13 12 11 11 11 11 11 11 11 11 11 12 12 11 11 10 11 11 11 11 11 12 12 11 12 13 13
20 19 19 17 16 16 16 16 16 15 15 15 15 15 15 15 14 14 14 13 13 13 13 13 12 12 12 12 12 12 12 12 12 12 12 12 12 13 13 13 13 13 13 13
22 21 20 18 17 17 17 16 16 16 16 17 16 16 16 16 16 15 14 14 14 14 14 13 13 13 14 14 13 13 13 14 14 14 13 14 14 14 14 14 15 15 14 14
23 23 22 19 19 19 19 18 18 18 18 18 18 17 17 17 17 17 16 16 15 15 15 15 14 14 14 14 14 14 14 14 14 14 14 15 15 15 16 16 16 16 16 16
24 24 23 21 21 20 20 19 19 19 19 19 19 19 19 19 19 19 18 17 16 16 15 15 15 15 15 15 15 15 15 15 14 15 15 16 16 17 17 17 17 17 17 17
25 25 24 22 22 22 21 21 20 20 20 20 20 20 20 20 20 20 20 19 18 17 17 16 16 16 16 16 15 15 16 17 16 16 16 17 17 17 18 18 18 18 18 19
26 25 24 23 22 23 23 22 21 21 21 21 21 21 21 21 21 21 21 21 20 20 19 19 19 18 17 17 17 16 17 17 17 17 18 18 18 18 19 18 18 19 19 20
26 25 24 24 23 23 23 23 23 22 22 23 22 22 22 22 22 21 21 22 21 21 21 20 20 20 19 20 19 19 18 18 19 19 18 19 19 19 19 19 19 19 20 20
26 24 24 25 24 24 24 24 24 23 23 23 23 23 23 23 23 23 23 22 23 23 23 23 22 22 22 22 22 21 21 21 20 19 19 19 19 19 19 19 19 20 20 20
27 26 26 26 26 26 25 25 25 25 24 23 23 23 23 23 23 23 23 23 23 24 24 24 24 23 23 23 23 23 23 22 21 21 21 20 20 20 20 19 20 20 21 21
29 28 28 28 28 27 27 26 26 26 26 25 25 25 24 24 24 24 24 24 23 23 24 24 24 24 25 25 25 25 24 24 23 23 23 22 21 21 21 21 22 22 22 23
30 30 29 29 29 29 28 27 26 26 26 26 26 26 26 25 25 25 25 25 25 25 25 25 25 25 26 26 26 25 25 25 24 24 24 24 23 23 22 22 23 23 24 24
31 31 30 30 30 29 29 28 27 27 27 27 27 27 27 26 26 26 26 27 27 27 26 26 26 26 27 26 26 25 25 25 25 25 25 25 25 25 24 25 25 25 25 26
32 32 32 31 30 29 29 29 28 28 28 28 28 28 28 27 27 27 27 28 28 28 28 27 27 27 27 26 26 26 26 26 26 26 26 26 26 25 26 26 26 27 27 27
32 32 32 31 30 30 30 29 29 28 29 29 29 29 28 28 28 28 28 28 28 29 29 28 28 28 28 27 27 27 27 27 27 27 27 27 26 27 27 28 28 27 27 27
33 33 32 32 31 31 30 30 29 29 29 29 29 30 30 30 30 29 29 28 29 29 29 30 30 30 29 29 28 28 29 29 29 28 28 28 28 28 28 29 29 29 28 29
33 33 32 32 32 31 31 31 31 31 31 30 30 31 31 31 30 30 30 30 29 30 31 30 30 30 29 29 30 29 29 30 30 30 29 29 29 29 29 29 29 29 30 30
35 34 34 33 32 32 32 32 32 32 32 31 31 31 31 31 31 31 31 30 30 29 29 30 30 30 30 30 30 30 30 30 30 30 30 30 30 30 30 30 30 30 30 30
35 35 35 35 34 33 33 33 33 33 33 32 32 31 32 32 32 32 32 31 31 30 30 29 29 30 31 31 31 31 31 31 31 31 31 31 31 31 31 31 31 32 32 32
33 34 34 34 34 34 34 34 35 35 34 34 34 33 33 33 33 33 33 32 32 32 31 31 31 31 31 31 30 30 30 31 31 32 32 32 32 32 32 32 32 33 33 33
33 34 34 35 35 35 36 37 37 37 37 36 36 36 35 35 34 34 33 33 32 32 32 32 31 31 31 32 32 31 32 32 32 33 33 34 33 33 33 33 33 33 33 33
34 35 36 36 36 36 36 37 38 37 38 37 37 37 37 36 35 35 34 34 34 33 32 32 33 33 33 33 33 34 34 34 34 34 35 35 34 34 34 33 34 34 35 35
35 35 35 36 36 36 37 37 37 37 38 38 38 37 37 36 36 36 35 35 35 34 34 34 34 34 34 34 35 35 36 36 36 36 36 36 35 35 35 35 35 35 35 35
35 35 36 37 38 38 38 38 38 38 38 38 38 37 37 37 37 37 37 36 36 36 35 35 36 36 36 36 36 36 36 37 37 36 36 36 36 36 36 36 36 36 36 36
35 35 36 37 37 37 38 38 38 38 38 37 37 37 37 37 37 37 37 36 36 36 37 37 37 37 37 36 36 36 37 37 37 36 36 37 37 38 38 37 37 37 37 37